Погода в Истобном

Россия / Липецкая область     53°08′34″N   39°57′53″E
темп.,
°C
ветер,
м/с
пор.,
м/с
влажн.,
%
обл.,
%
осадки,
мм/ч
давл.,
гПа
погр.,
м
17 мая, пн
пн1700:00+17св3386100 2.1 101343
03:00+16всв379598 3.0 1013139
06:00+16в38905 0.0 1013186
09:00+22вюв576962 0.0 1013360
12:00+25юв685231 0.0 1012985
15:00+26юв610545 0.0 10121245
18:00+23юв61265100 0.0 1011452
21:00+19вюв41479100 0.0 1011257
18 мая, вт
вт1800:00+18юв6166148 0.0 1011321
03:00+16юв514624 0.0 1011285
06:00+15вюв4117363 0.0 1011236
09:00+21юв5116085 0.0 1011458
12:00+25юв69495 0.0 1010772
15:00+26вюв71252100 0.0 10081349
18:00+24юв7146331 0.0 1008602
21:00+20вюв5156693 0.0 1008405
19 мая, ср
ср1900:00+17вюв413662 0.0 1008274
03:00+15вюв4869100 0.0 1008155
06:00+15вюв377940 0.0 1008154
09:00+20ююв456699 0.0 1008489
12:00+23ююв356199 0.0 10081172
15:00+24ююв6105494 0.0 10091719
18:00+20ю6974100 0.8 1008378
21:00+15ююв2396100 3.2 100967
20 мая, чт
чт2000:00+15юв3496100 1.9 1008123
03:00+14юв3697100 2.4 1007165
06:00+13ююз3597100 11.4 1008281
09:00+14ю4691100 11.7 1008437
12:00+17ю687356 0.9 10091152
15:00+19ююз78615 1.3 10101594
18:00+17юз68750 0.3 10111050
21:00+13ююз49882 0.3 1013217
21 мая, пт
пт2100:00+12юз499429 0.0 1015221
03:00+10юз3895100 0.0 1016152
06:00+12ююз259114 0.0 1017151
09:00+14юз3685100 0.0 1019332
12:00+19юз466970 0.2 10191064
15:00+20ююз46665 1.0 10191212
18:00+20ю347167 0.6 1018207
21:00+15юв4787100 0.8 1018102